Location: Bli��� Lhota
(48.7570°N, 14.0120°E)
Time: 08:51:30
(UTC+00:00)

ATLAS 2AS CENTAUR R/B - Pass Details

Date: 18 September 2020
Orbit: 939 x 1273 km, 63.7° (Epoch: 26 October)

Event Time Altitude Azimuth Distance (km) Brightness Sun altitude
Exits shadow 22:59:05 11° 277° (W) 3,168 5.2 -39.8°
Maximum altitude 23:05:47 33° 338° (NNW) 1,973 4.4 -39.8°
Drops below altitude 10° 23:12:38 10° 41° (NE) 3,166 5.6 -39.7°
Sets 23:15:42 0° 51° (NE) 4,087 6.3 -39.7°
